Location: Newark
(29.9790°N, 31.1340°E)
Time: 14:38:44
(UTC+00:00)

Transit 2A Rocket - Pass Details

Date: 23 January 2020
Orbit: 591 x 912 km, 66.7° (Epoch: 29 February)

Event Time Altitude Azimuth Distance (km) Brightness Sun altitude
Rises 12:35:46 0° 342° (NNW) 3,071 7.9 29.0°
Reaches altitude 10° 12:38:05 10° 348° (NNW) 2,200 7.1 28.6°
Maximum altitude 12:42:58 50° 63° (ENE) 972 5.5 27.9°
Drops below altitude 10° 12:48:18 10° 138° (SE) 2,400 7.7 27.1°
Sets 12:50:55 0° 144° (SE) 3,378 8.5 26.8°
